User: anonymous   Login
Location: Theodore Roosevelt National Park
(46.9990°N, 103.4631°W)
Time: 11:11:28
(UTC-07:00)
Language:

Cosmos 2219 Rocket - Orbit

View from above orbital plane
View from above orbital plane
View from above satellite
View from above satellite

Ground track
Ground track

The orbit data is extracted from the following two-line orbital elements,

1 22220U 92076B   17019.53167073  .00000201  00000-0  12491-3 0  9995
2 22220  71.0002  12.1590 0011561 148.6523 306.9381 14.16408556249725
Epoch (UTC): 19 January 2017 12:45:36
Eccentricity: 0.0011561
inclination: 71.0002°
perigee height: 829 km
apogee height: 846 km
right ascension of ascending node: 12.1590°
argument of perigee: 148.6523°
revolutions per day: 14.16408556
mean anomaly at epoch: 306.9381°
orbit number at epoch: 24972

The dashed part of the orbit path shows where the satellite is in the earth's shadow,  

DLR